Location: Pianadetto
(44.4000°N, 10.1000°E)
Time: 20:30:44
(UTC+00:00)

CZ-2C R/B - Pass Details

Date: 26 May 2022
Orbit: 667 x 784 km, 98.3° (Epoch: 02 July)

Event Time Altitude Azimuth Distance (km) Brightness Sun altitude
Rises 02:32:38 0° 17° (NNE) 3,268 7.0 -10.7°
Reaches altitude 10° 02:35:03 10° 23° (NNE) 2,326 6.2 -10.4°
Maximum altitude 02:40:04 53° 100° (E) 932 3.2 -9.7°
Drops below altitude 10° 02:44:55 10° 177° (S) 2,247 4.6 -9.1°
Sets 02:47:12 0° 182° (S) 3,148 5.3 -8.8°
Enters shadow 02:47:20 - 182° (S) 3,197 5.3 -8.8°
